Location: Boda
(47.1872°N, 9.5454°E)
Time: 18:02:57
(UTC+00:00)

ISS - Pass Details

Date: 14 May 2021
Orbit: 417 x 422 km, 51.6° (Epoch: 16 June)

Event Time Altitude Azimuth Distance (km) Brightness Sun altitude
Rises 02:26:20 0° 294° (WNW) 2,375 -0.1 -11.8°
Reaches altitude 10° 02:28:27 10° 291° (WNW) 1,509 -1.2 -11.5°
Maximum altitude 02:31:47 61° 211° (SSW) 482 -3.8 -11.1°
Drops below altitude 10° 02:35:08 10° 130° (SE) 1,503 -0.9 -10.7°
Sets 02:37:14 0° 126° (SE) 2,365 0.2 -10.4°
